Погода в Тапачуле

Мексика     14°54′21″N   92°15′53″W
темп.,
°C
ветер,
м/с
пор.,
м/с
влажн.,
%
обл.,
%
осадки,
мм/ч
давл.,
гПа
погр.,
м
6 марта, сб
сб600:00+21ссв127323 0.0 101425
03:00+20ссв12650 0.0 101324
06:00+20ссв22570 0.0 101426
09:00+27юз21510 0.0 1015615
12:00+32юз32380 0.0 10131644
15:00+30юз434717 0.0 10101314
18:00+25зюз236728 0.1 1011253
21:00+22св11710 0.0 101526
7 марта, вс
вс700:00+21св22610 0.0 101531
03:00+21ссв22580 0.0 101529
06:00+20св22540 0.0 101530
09:00+28ююз21420 0.0 1018653
12:00+33юз42320 0.0 10151758
15:00+31юз43453 0.0 10131446
18:00+25зюз236625 0.1 1014510
21:00+22ссв11752 0.0 101730
8 марта, пн
пн800:00+21св11671 0.0 101733
03:00+21ссв12620 0.0 101630
06:00+21ссв22550 0.0 101730
09:00+28юз21420 0.0 1019648
12:00+33юз433214 0.0 10171776
15:00+30юз444888 0.0 10141213
18:00+25зюз236994 0.1 1015313
21:00+22св1267100 0.0 101837
9 марта, вт
вт900:00+22св2251100 0.0 101833
03:00+22ссв2241100 0.0 101744
06:00+21ссв2239100 0.0 101745
09:00+29юз222866 0.0 1019686
12:00+33юз332433 0.0 10161650
15:00+32зюз54310 0.0 10131294
18:00+26юз12530 0.0 101472
21:00+23всв22560 0.0 101748
10 марта, ср
ср1000:00+22св22510 0.0 101742
03:00+22ссв22460 0.0 101530
06:00+21ссв114613 0.0 101628
09:00+29зюз213476 0.0 1017641
12:00+33юз422979 0.0 10151961
15:00+31зюз444373 0.1 10121346
18:00+25зюз236869 0.4 1013368
21:00+22ссв117733 0.1 101625